Regional Weather Roundup
Issued by NWS

Home | Current Version | Previous Version | Graphics & Text | Print | Product List | Glossary Off
Versions: 1 2 3 4 5 6 7 8 9 10 11 12 13 14 15 16 17 18 19 20 21 22 23 24 25 26 27 28 29 30 31 32 33 34 35 36 37 38 39 40 41 42 43 44 45 46 47 48 49 50

387
ASUS43 KLSX 250107
RWRMO

WEATHER SUMMARY FOR MISSOURI
NATIONAL WEATHER SERVICE SPRINGFIELD MO
700 PM CST FRI NOV 24 2017

NOTE: "FAIR" INDICATES FEW OR NO CLOUDS BELOW 12,000 FEET WITH NO
       SIGNIFICANT WEATHER AND/OR OBSTRUCTIONS TO VISIBILITY.
       CURRENT SKY AND/OR WEATHER CONDITIONS ARE NOT AVAILABLE FOR
       CHILLICOTHE AND FARMINGTON.

MOZ001>031-035>038-043-044-053-054-250200-
...NORTHERN AND WESTERN MISSOURI...

CITY           SKY/WX    TMP DP  RH WIND       PRES   REMARKS
KANSAS CTY INT CLOUDY    62  41  46 N10       29.75R
KANSAS C DTWN  PTCLDY    67  41  38 N14       29.73R
LEE`S SUMMIT   PTCLDY    66  43  43 N21       29.74R
ST JOSEPH      CLEAR     51  38  60 NW5       29.74R
CHILLICOTHE      N/A     62  42  47 NW5       29.70R
KIRKSVILLE     CLOUDY    63  43  48 NW9       29.66R

$$
MOZ066>068-077>081-088>096-101>105-250200-
...SOUTHWEST MISSOURI...

CITY           SKY/WX    TMP DP  RH WIND       PRES   REMARKS
SPRINGFIELD    CLOUDY    62  36  37 S9        29.74R
JOPLIN         PTCLDY    64  38  38 SW8       29.75R
BRANSON        MOCLDY    64  32  29 SW6       29.78R

$$
MOZ032>034-039>042-045>050-055>058-069>072-250200-
...CENTRAL MISSOURI...

CITY           SKY/WX    TMP DP  RH WIND       PRES   REMARKS
COLUMBIA       PTCLDY    63  38  39 SW8       29.66R
JEFFERSON CITY PTCLDY    67  36  31 S6        29.66R
ROLLA          MOCLDY    64  36  35 SW10      29.69R
SEDALIA        CLOUDY    68  41  37 W13       29.68R
WHITEMAN AFB   CLOUDY    64  40  41 W9        29.65R
WARRENSBURG    PTCLDY    63  37  39 W6        29.69R
OSAGE BEACH    PTCLDY    69  37  30 SW9       29.69R

$$
MOZ051-052-059>065-250200-
...EAST CENTRAL MISSOURI...

CITY           SKY/WX    TMP DP  RH WIND       PRES   REMARKS
ST LOUIS INTL  MOCLDY    65  36  34 SW10      29.64R
SPIRIT OF STL  CLOUDY    67  35  30 SW7       29.63R
ST CHARLES     CLOUDY    61  35  37 SW6       29.63R

$$
MOZ072>076-082>087-097>100-106>115-250200-
...SOUTH CENTRAL AND SOUTHEAST MISSOURI...

CITY           SKY/WX    TMP DP  RH WIND       PRES   REMARKS
CAPE GIRARDEAU PTCLDY    55  36  48 S15G23    29.78F
FARMINGTON     MOCLDY    58  36  43 S17G23    29.70F
POPLAR BLUFF   PTCLDY    57  36  45 S10       29.78F
WEST PLAINS    PTCLDY    62  34  35 S9        29.76S

$$



USA.gov is the U.S. government's official web portal to all federal, state and local government web resources and services.